Date String (YYYY-MM-DD hh:mm:ss) UTC,Instrument flags,Ambient pressure (hPa),Sample flow (lpm),Bypass flow (lpm),Sample temperature (°C),Ambient temperature (°C),ASC tube jacket temperature (°C),LED temperature (°C),Box temperature (°C),Sample RH (%),Span deviation,Mass concentration (μg/m³),Mass concentration (μg/m³),Mass concentration (μg/m³)
DateTimeUTC,F1_M11,P_M11,Q1_M11,Q2_M11,T1_M11,T2_M11,T3_M11,T4_M11,T5_M11,U1_M11,ZSPAN_M11,X0_M11,X2_M11,X1_M11
2022-01-29 16:00:00,,0829.8,5.01,0.00,23.3,22.5,00.0,32.2,25.1,04.3,0000.0,0000.52,0000.35,0000.28
2022-01-29 16:01:00,,0829.8,5.01,0.00,23.4,22.5,00.0,32.2,25.1,04.2,0000.0,0000.54,0000.35,0000.28
2022-01-29 16:02:00,,0829.8,4.99,0.00,23.4,22.5,00.0,32.2,25.1,04.3,0000.0,0000.55,0000.35,0000.28
2022-01-29 16:03:00,,0829.8,4.99,0.00,23.4,22.5,00.0,32.2,25.2,04.3,0000.0,0000.50,0000.34,0000.28
2022-01-29 16:04:00,,0829.8,4.99,0.00,23.4,22.5,00.0,32.2,25.2,04.4,0000.0,0000.45,0000.32,0000.28
2022-01-29 16:05:00,,0829.8,5.00,0.00,23.4,22.6,00.0,32.2,25.2,04.6,0000.0,0000.40,0000.30,0000.28
2022-01-29 16:06:00,,0829.8,5.00,0.00,23.4,22.6,00.0,32.2,25.2,04.6,0000.0,0000.38,0000.30,0000.28
2022-01-29 16:07:00,,0829.8,4.99,0.00,23.4,22.6,00.0,32.3,25.2,04.7,0000.0,0000.44,0000.32,0000.28
2022-01-29 16:08:00,,0829.8,5.01,0.00,23.5,22.6,00.0,32.3,25.2,04.6,0000.0,0000.48,0000.35,0000.29
2022-01-29 16:09:00,,0829.8,5.01,0.00,23.5,22.7,00.0,32.3,25.2,04.6,0000.0,0000.48,0000.35,0000.29
2022-01-29 16:10:00,,0829.7,4.97,0.00,23.5,22.7,00.0,32.3,25.3,04.7,0000.0,0000.51,0000.36,0000.30
2022-01-29 16:11:00,,0829.7,4.99,0.00,23.5,22.7,00.0,32.3,25.3,04.7,0000.0,0000.54,0000.37,0000.30
2022-01-29 16:12:00,,0829.7,5.00,0.00,23.5,22.7,00.0,32.3,25.3,04.8,0000.0,0000.51,0000.37,0000.31
2022-01-29 16:13:00,,0829.7,4.99,0.00,23.5,22.8,00.0,32.3,25.4,05.0,0000.0,0000.56,0000.39,0000.31
2022-01-29 16:14:00,,0829.7,5.00,0.00,23.5,22.8,00.0,32.4,25.4,05.0,0000.0,0000.59,0000.40,0000.32
2022-01-29 16:15:00,,0829.7,5.00,0.00,23.6,22.8,00.0,32.4,25.4,04.9,0000.0,0000.62,0000.42,0000.32
2022-01-29 16:16:00,,0829.7,5.01,0.00,23.6,22.9,00.0,32.4,25.4,05.0,0000.0,0000.70,0000.45,0000.32
2022-01-29 16:17:00,,0829.7,5.00,0.00,23.6,22.9,00.0,32.4,25.4,05.1,0000.0,0000.76,0000.47,0000.32
2022-01-29 16:18:00,,0829.7,5.00,0.00,23.6,22.9,00.0,32.4,25.4,05.1,0000.0,0000.72,0000.47,0000.33
2022-01-29 16:19:00,,0829.7,5.01,0.00,23.6,22.9,00.0,32.4,25.4,05.2,0000.0,0000.72,0000.47,0000.33
2022-01-29 16:20:00,,0829.7,5.01,0.00,23.6,22.9,00.0,32.4,25.5,05.0,0000.0,0000.74,0000.47,0000.34
2022-01-29 16:21:00,,0829.7,4.99,0.00,23.7,22.9,00.0,32.5,25.5,05.1,0000.0,0000.80,0000.49,0000.34
2022-01-29 16:22:00,,0829.7,5.00,0.00,23.7,22.9,00.0,32.5,25.5,05.4,0000.0,0000.78,0000.49,0000.34
2022-01-29 16:23:00,,0829.7,5.00,0.00,23.7,23.0,00.0,32.5,25.5,05.4,0000.0,0000.83,0000.51,0000.35
2022-01-29 16:24:00,,0829.7,5.01,0.00,23.7,23.0,00.0,32.5,25.5,05.5,0000.0,0000.82,0000.51,0000.36
2022-01-29 16:25:00,,0829.7,5.00,0.00,23.7,23.0,00.0,32.5,25.5,05.3,0000.0,0000.82,0000.52,0000.37
2022-01-29 16:26:00,,0829.7,4.98,0.00,23.8,23.0,00.0,32.5,25.5,05.3,0000.0,0000.81,0000.51,0000.37
2022-01-29 16:27:00,,0829.7,5.01,0.00,23.8,23.0,00.0,32.6,25.6,05.1,0000.0,0000.75,0000.50,0000.39
2022-01-29 16:28:00,,0829.7,5.02,0.00,23.8,23.1,00.0,32.6,25.6,05.3,0000.0,0000.76,0000.49,0000.40
2022-01-29 16:29:00,,0829.7,4.99,0.00,23.8,23.1,00.0,32.6,25.6,05.0,0000.0,0000.83,0000.50,0000.41
2022-01-29 16:30:00,,0829.7,5.00,0.00,23.8,23.1,00.0,32.6,25.7,04.8,0000.0,0000.78,0000.49,0000.41
2022-01-29 16:31:00,,0829.7,5.01,0.00,23.9,23.1,00.0,32.6,25.7,04.8,0000.0,0000.78,0000.50,0000.42
2022-01-29 16:32:00,,0829.6,5.01,0.00,23.9,23.1,00.0,32.7,25.7,04.7,0000.0,0000.74,0000.49,0000.42
2022-01-29 16:33:00,,0829.7,5.00,0.00,23.9,23.2,00.0,32.7,25.7,04.7,0000.0,0000.77,0000.52,0000.42
2022-01-29 16:34:00,,0829.6,5.00,0.00,23.9,23.2,00.0,32.7,25.8,04.8,0000.0,0000.71,0000.50,0000.42
2022-01-29 16:35:00,,0829.6,5.00,0.00,24.0,23.2,00.0,32.7,25.8,04.8,0000.0,0000.69,0000.50,0000.42
2022-01-29 16:36:00,,0829.7,4.99,0.00,24.0,23.2,00.0,32.7,25.9,04.8,0000.0,0000.69,0000.50,0000.42
2022-01-29 16:37:00,,0829.7,4.99,0.00,24.0,23.3,00.0,32.8,25.9,04.8,0000.0,0000.69,0000.51,0000.42
2022-01-29 16:38:00,,0829.7,5.00,0.00,24.0,23.3,00.0,32.8,25.9,04.8,0000.0,0000.73,0000.52,0000.43
2022-01-29 16:39:00,,0829.7,5.01,0.00,24.0,23.3,00.0,32.8,25.9,05.1,0000.0,0000.76,0000.54,0000.43
2022-01-29 16:40:00,,0829.7,5.00,0.00,24.0,23.3,00.0,32.8,26.0,05.4,0000.0,0000.74,0000.57,0000.45
2022-01-29 16:41:00,,0829.7,5.00,0.00,24.1,23.3,00.0,32.8,26.0,05.8,0000.0,0000.77,0000.59,0000.46
2022-01-29 16:42:00,,0829.7,5.00,0.00,24.1,23.4,00.0,32.8,26.0,05.8,0000.0,0000.80,0000.62,0000.49
2022-01-29 16:43:00,,0829.7,4.99,0.00,24.1,23.4,00.0,32.9,26.0,06.0,0000.0,0000.86,0000.66,0000.54
2022-01-29 16:44:00,,0829.7,4.99,0.00,24.1,23.4,00.0,32.9,26.0,05.5,0000.0,0000.88,0000.67,0000.57
2022-01-29 16:45:00,,0829.7,5.01,0.00,24.1,23.4,00.0,32.9,26.1,05.6,0000.0,0000.93,0000.71,0000.61
2022-01-29 16:46:00,,0829.7,4.99,0.00,24.2,23.5,00.0,32.9,26.1,05.5,0000.0,0000.96,0000.74,0000.64
2022-01-29 16:47:00,,0829.7,5.00,0.00,24.2,23.5,00.0,33.0,26.1,05.3,0000.0,0000.97,0000.75,0000.67
2022-01-29 16:48:00,,0829.7,5.02,0.00,24.2,23.5,00.0,33.0,26.1,05.3,0000.0,0000.99,0000.78,0000.69
2022-01-29 16:49:00,,0829.7,5.00,0.00,24.2,23.5,00.0,33.0,26.1,05.2,0000.0,0000.98,0000.78,0000.70
2022-01-29 16:50:00,,0829.8,5.00,0.00,24.2,23.5,00.0,33.0,26.2,05.2,0000.0,0001.00,0000.79,0000.71
2022-01-29 16:51:00,,0829.7,4.99,0.00,24.3,23.6,00.0,33.0,26.2,05.2,0000.0,0000.95,0000.77,0000.71
2022-01-29 16:52:00,,0829.7,5.00,0.00,24.3,23.6,00.0,33.0,26.2,05.1,0000.0,0000.98,0000.77,0000.71
2022-01-29 16:53:00,,0829.7,4.99,0.00,24.3,23.6,00.0,33.1,26.2,05.1,0000.0,0000.96,0000.75,0000.69
2022-01-29 16:54:00,,0829.8,5.00,0.00,24.3,23.6,00.0,33.1,26.3,05.1,0000.0,0000.97,0000.71,0000.65
2022-01-29 16:55:00,,0829.8,5.01,0.00,24.3,23.6,00.0,33.1,26.3,05.2,0000.0,0000.96,0000.68,0000.62
2022-01-29 16:56:00,,0829.8,5.00,0.00,24.4,23.7,00.0,33.1,26.3,05.3,0000.0,0000.93,0000.65,0000.59
2022-01-29 16:57:00,,0829.8,5.00,0.00,24.4,23.7,00.0,33.2,26.3,05.1,0000.0,0000.92,0000.63,0000.56
2022-01-29 16:58:00,,0829.8,5.00,0.00,24.4,23.7,00.0,33.2,26.3,05.4,0000.0,0001.01,0000.64,0000.54
2022-01-29 16:59:00,,0829.8,5.01,0.00,24.4,23.7,00.0,33.2,26.3,05.0,0000.0,0001.05,0000.64,0000.50
